Location: ??????????
(48.4699°N, 37.9573°E)
Time: 00:25:49
(UTC+00:00)

Cosmos 2227 - Visible Passes

Search period start: 16 May 2021 00:00
Search period end: 26 May 2021 00:00
Orbit: 835 x 861 km, 71.0° (Epoch: 14 May)

Date Brightness Start Highest point End Pass type
(mag) Time Alt. Az. Time Alt. Az. Time Alt. Az.
16 May 7.6 18:12:32 10° NNW 18:13:18 10° NNW 18:14:03 10° NNW visible
16 May 7.0 21:44:49 10° N 21:47:50 14° NNE 21:50:49 10° ENE visible
16 May 5.0 23:27:52 10° NNW 23:33:26 52° NE 23:38:54 10° SE visible
17 May 7.6 17:59:12 10° NNW 18:00:05 10° NNW 18:00:58 10° NNW visible
17 May 7.0 21:31:39 10° N 21:34:37 14° NNE 21:37:33 10° ENE visible
17 May 5.0 23:14:41 10° NNW 23:20:14 51° NE 23:25:42 10° SE visible
18 May 5.0 00:59:19 10° NW 01:04:09 29° WSW 01:08:55 10° SSW visible
18 May 7.6 17:45:51 10° NW 17:46:52 10° NNW 17:47:52 10° NNW visible
18 May 6.9 21:18:29 10° N 21:21:24 14° NNE 21:24:18 10° ENE visible
18 May 5.0 23:01:29 10° NNW 23:07:02 51° NE 23:12:29 10° SE visible
19 May 5.0 00:46:07 10° NW 00:50:57 30° WSW 00:55:45 10° SSW visible
19 May 6.9 21:05:19 10° N 21:08:11 14° NNE 21:11:02 10° ENE visible
19 May 5.0 22:48:18 10° NNW 22:53:50 50° NE 22:59:17 10° SE visible
20 May 5.0 00:32:54 10° NW 00:37:46 30° WSW 00:42:36 10° SSW visible
20 May 6.9 20:52:09 10° N 20:54:58 14° NNE 20:57:47 10° ENE visible
20 May 5.0 22:35:07 10° NNW 22:40:37 49° NE 22:46:04 10° SE visible
21 May 5.0 00:19:42 10° NW 00:24:35 31° WSW 00:29:26 10° SSW visible
21 May 6.8 20:38:59 10° N 20:41:45 14° NNE 20:44:30 10° ENE visible
21 May 5.0 22:21:55 10° NNW 22:27:26 48° NE 22:32:51 10° SE visible
22 May 5.0 00:06:30 10° NW 00:11:24 31° WSW 00:15:46 12° SSW visible
22 May 6.8 20:25:49 10° N 20:28:32 13° NNE 20:31:15 10° ENE visible
22 May 5.1 22:08:44 10° NNW 22:14:13 48° NE 22:19:39 10° SE visible
22 May 5.0 23:53:17 10° NW 23:58:13 32° WSW 00:01:49 16° SSW visible
23 May 6.8 20:12:39 10° N 20:15:19 13° NNE 20:17:59 10° ENE visible
23 May 5.1 21:55:33 10° NNW 22:01:02 47° NE 22:06:10 11° SE visible
23 May 5.0 23:40:05 10° NW 23:45:02 32° WSW 23:48:03 20° SSW visible
24 May 6.8 19:59:29 10° N 20:02:06 13° NNE 20:04:43 10° ENE visible
24 May 5.1 21:42:22 10° NNW 21:47:49 46° NE 21:52:32 14° SE visible
24 May 4.9 23:26:52 10° NW 23:31:51 33° WSW 23:34:25 22° SSW visible
25 May 6.7 19:46:20 10° N 19:48:53 13° NNE 19:51:27 10° ENE visible
25 May 5.1 21:29:11 10° NNW 21:34:38 46° NE 21:39:01 15° ESE visible
25 May 4.9 23:13:40 10° NW 23:18:40 33° WSW 23:20:54 25° SSW visible
